Weather History for Fergus Falls, MN

Change the Weather History Date:

Wednesday, August 20, 2014

  Actual Average Record
Temperature  
Mean Temperature 72 °F -  
Max Temperature 80 °F 77 °F 96 °F (1955)
Min Temperature 64 °F 56 °F 36 °F (1950)
Cooling Degree Days 7    
Growing Degree Days 22 (Base 50)    
Moisture  
Dew Point 63 °F    
Average Humidity 71    
Maximum Humidity 94    
Minimum Humidity 54    
Precipitation  
Precipitation 0.00 in - - ()
Sea Level Pressure  
Sea Level Pressure 29.80 in    
Wind  
Wind Speed 6 mph (SE)    
Max Wind Speed 15 mph    
Max Gust Speed 18 mph    
Visibility 10 miles    
Events      
Averages and records for this station are not official NWS values.
T = Trace of Precipitation, MM = Missing Value Source: NWS Daily Summary

Daily Weather History Graph

Daily Weather History Graph

Search for Another Location

Airport:

Trip Planner

Search our weather history database for the weather conditions in past years. The results will help you decide how hot, cold, wet, or windy it might be!

Date:

Astronomy

Aug. 20, 2014 Rise Set
Actual Time 6:29 AM CDT 8:25 PM CDT
Civil Twilight 5:57 AM CDT 8:57 PM CDT
Nautical Twilight 5:17 AM CDT 9:36 PM CDT
Astronomical Twilight 4:34 AM CDT 10:20 PM CDT
Moon 2:04 AM CDT (8/20) 5:16 PM CDT (8/20)
Length of Visible Light 14h 59m
Length of Day
13h 55m
Waning Crescent, 20% of the Moon is Illuminated
Aug 20
Waning Crescent
Aug 25
New
Sep 2
First Quarter
Sep 8
Full
Sep 15
Last Quarter

Hourly Weather History & Observations

Time (CDT) Temp. Heat Index Dew Point Humidity Pressure Visibility Wind Dir Wind Speed Gust Speed Precip Events Conditions
12:14 AM 68.0 °F - 60.8 °F 78% 29.79 in 10.0 mi East 3.5 mph - N/A   Clear
12:34 AM 68.0 °F - 60.8 °F 78% 29.78 in 10.0 mi East 3.5 mph - N/A   Clear
12:54 AM 69.8 °F - 60.8 °F 73% 29.79 in 10.0 mi Calm Calm - N/A   Clear
1:14 AM 66.2 °F - 60.8 °F 83% 29.79 in 10.0 mi Calm Calm - N/A   Clear
1:34 AM 66.2 °F - 60.8 °F 83% 29.80 in 10.0 mi SE 3.5 mph - N/A   Clear
1:54 AM 66.2 °F - 60.8 °F 83% 29.80 in 10.0 mi SSE 3.5 mph - N/A   Clear
2:14 AM 66.2 °F - 62.6 °F 88% 29.79 in 10.0 mi Calm Calm - N/A   Clear
2:34 AM 66.2 °F - 62.6 °F 88% 29.79 in 10.0 mi SE 3.5 mph - N/A   Clear
2:54 AM 66.2 °F - 62.6 °F 88% 29.79 in 10.0 mi ESE 3.5 mph - N/A   Clear
3:14 AM 66.2 °F - 62.6 °F 88% 29.79 in 10.0 mi East 4.6 mph - N/A   Clear
3:34 AM 66.2 °F - 62.6 °F 88% 29.80 in 10.0 mi ESE 3.5 mph - N/A   Clear
3:54 AM 66.2 °F - 62.6 °F 88% 29.80 in 10.0 mi East 3.5 mph - N/A   Clear
4:14 AM 66.2 °F - 62.6 °F 88% 29.80 in 10.0 mi East 3.5 mph - N/A   Clear
4:34 AM 66.2 °F - 62.6 °F 88% 29.80 in 10.0 mi ESE 5.8 mph - N/A   Clear
4:54 AM 66.2 °F - 62.6 °F 88% 29.80 in 10.0 mi ESE 5.8 mph - N/A   Clear
5:14 AM 66.2 °F - 62.6 °F 88% 29.80 in 10.0 mi ESE 5.8 mph - N/A   Clear
5:34 AM 66.2 °F - 62.6 °F 88% 29.79 in 10.0 mi ESE 5.8 mph - N/A   Clear
5:54 AM 66.2 °F - 62.6 °F 88% 29.79 in 10.0 mi East 4.6 mph - N/A   Clear
6:14 AM 64.4 °F - 62.6 °F 94% 29.79 in 10.0 mi ESE 5.8 mph - N/A   Clear
6:34 AM 64.4 °F - 62.6 °F 94% 29.80 in 10.0 mi East 3.5 mph - N/A   Clear
6:54 AM 64.4 °F - 62.6 °F 94% 29.80 in 10.0 mi ESE 4.6 mph - N/A   Clear
7:14 AM 66.2 °F - 62.6 °F 88% 29.81 in 10.0 mi SE 3.5 mph - N/A   Clear
7:34 AM 66.2 °F - 62.6 °F 88% 29.82 in 10.0 mi ESE 5.8 mph - N/A   Clear
7:54 AM 66.2 °F - 62.6 °F 88% 29.83 in 10.0 mi SE 5.8 mph - N/A   Clear
8:14 AM 69.8 °F - 64.4 °F 83% 29.83 in 10.0 mi SE 8.1 mph - N/A   Clear
8:34 AM 69.8 °F - 62.6 °F 78% 29.82 in 10.0 mi ESE 6.9 mph - N/A   Clear
8:54 AM 71.6 °F - 62.6 °F 73% 29.82 in 10.0 mi SE 10.4 mph - N/A   Clear
9:14 AM 71.6 °F - 62.6 °F 73% 29.81 in 10.0 mi SE 8.1 mph - N/A   Clear
9:34 AM 73.4 °F - 60.8 °F 65% 29.81 in 10.0 mi SE 10.4 mph - N/A   Clear
9:53 AM 73.4 °F - 60.8 °F 65% 29.80 in 10.0 mi ESE 9.2 mph - N/A   Clear
10:14 AM 75.2 °F - 62.6 °F 65% 29.80 in 10.0 mi SE 9.2 mph - N/A   Clear
10:34 AM 75.2 °F - 62.6 °F 65% 29.80 in 10.0 mi SE 10.4 mph - N/A   Clear
10:53 AM 77.0 °F - 62.6 °F 61% 29.81 in 10.0 mi SSE 9.2 mph - N/A   Clear
11:14 AM 77.0 °F - 62.6 °F 61% 29.80 in 10.0 mi SSE 8.1 mph - N/A   Clear
11:34 AM 78.8 °F - 62.6 °F 57% 29.80 in 10.0 mi SE 8.1 mph - N/A   Clear
11:53 AM 78.8 °F - 62.6 °F 57% 29.80 in 10.0 mi ESE 6.9 mph - N/A   Clear
12:14 PM 78.8 °F - 62.6 °F 57% 29.80 in 10.0 mi SE 9.2 mph - N/A   Clear
12:34 PM 78.8 °F - 62.6 °F 57% 29.81 in 10.0 mi SE 8.1 mph - N/A   Clear
12:54 PM 78.8 °F - 62.6 °F 57% 29.80 in 10.0 mi SE 11.5 mph - N/A   Clear
1:14 PM 78.8 °F - 64.4 °F 61% 29.81 in 10.0 mi SE 11.5 mph - N/A   Clear
1:34 PM 80.6 °F 81.8 °F 62.6 °F 54% 29.80 in 10.0 mi SE 12.7 mph - N/A   Clear
1:54 PM 80.6 °F 81.8 °F 62.6 °F 54% 29.81 in 10.0 mi SSE 15.0 mph - N/A   Clear
2:14 PM 80.6 °F 81.8 °F 62.6 °F 54% 29.81 in 10.0 mi SSE 11.5 mph - N/A   Clear
2:33 PM 80.6 °F 81.8 °F 62.6 °F 54% 29.81 in 10.0 mi SSE 13.8 mph - N/A   Clear
2:54 PM 80.6 °F 81.8 °F 62.6 °F 54% 29.81 in 10.0 mi SSE 13.8 mph 18.4 mph N/A   Scattered Clouds
3:14 PM 80.6 °F 81.8 °F 62.6 °F 54% 29.81 in 10.0 mi SE 10.4 mph - N/A   Mostly Cloudy
3:33 PM 80.6 °F 82.3 °F 64.4 °F 58% 29.80 in 10.0 mi SSE 8.1 mph 11.5 mph N/A   Scattered Clouds
3:54 PM 80.6 °F 81.8 °F 62.6 °F 54% 29.80 in 10.0 mi SSE 9.2 mph - N/A   Scattered Clouds
4:14 PM 80.6 °F 82.3 °F 64.4 °F 58% 29.80 in 10.0 mi SE 10.4 mph - N/A   Scattered Clouds
4:33 PM 80.6 °F 82.3 °F 64.4 °F 58% 29.80 in 10.0 mi SSE 10.4 mph - N/A   Scattered Clouds
4:54 PM 80.6 °F 81.8 °F 62.6 °F 54% 29.80 in 10.0 mi SE 10.4 mph - N/A   Mostly Cloudy
5:14 PM 80.6 °F 81.8 °F 62.6 °F 54% 29.79 in 10.0 mi SSE 8.1 mph - N/A   Clear
5:33 PM 80.6 °F 81.8 °F 62.6 °F 54% 29.79 in 10.0 mi SE 10.4 mph - N/A   Clear
5:54 PM 80.6 °F 81.8 °F 62.6 °F 54% 29.79 in 10.0 mi SE 10.4 mph - N/A   Clear
6:14 PM 78.8 °F - 62.6 °F 57% 29.79 in 10.0 mi SE 8.1 mph - N/A   Clear
6:33 PM 78.8 °F - 64.4 °F 61% 29.79 in 10.0 mi SE 6.9 mph - N/A   Clear
6:54 PM 78.8 °F - 62.6 °F 57% 29.78 in 10.0 mi ESE 6.9 mph - N/A   Clear
7:14 PM 78.8 °F - 64.4 °F 61% 29.78 in 10.0 mi ESE 8.1 mph - N/A   Clear
7:34 PM 78.8 °F - 64.4 °F 61% 29.78 in 10.0 mi ESE 8.1 mph - N/A   Clear
7:54 PM 77.0 °F - 64.4 °F 65% 29.79 in 10.0 mi ESE 5.8 mph - N/A   Clear
8:14 PM 75.2 °F - 64.4 °F 69% 29.80 in 10.0 mi ESE 5.8 mph - N/A   Clear
8:34 PM 75.2 °F - 64.4 °F 69% 29.80 in 10.0 mi ESE 8.1 mph - N/A   Clear
8:54 PM 75.2 °F - 64.4 °F 69% 29.80 in 10.0 mi ESE 8.1 mph - N/A   Clear
9:14 PM 73.4 °F - 64.4 °F 73% 29.81 in 10.0 mi ESE 8.1 mph - N/A   Scattered Clouds
9:34 PM 73.4 °F - 64.4 °F 73% 29.80 in 10.0 mi ESE 8.1 mph - N/A   Scattered Clouds
9:54 PM 73.4 °F - 64.4 °F 73% 29.81 in 10.0 mi ESE 8.1 mph - N/A   Clear
10:14 PM 73.4 °F - 62.6 °F 69% 29.81 in 10.0 mi ESE 9.2 mph - N/A   Scattered Clouds
10:34 PM 73.4 °F - 62.6 °F 69% 29.79 in 10.0 mi ESE 11.5 mph - N/A   Clear
10:54 PM 73.4 °F - 62.6 °F 69% 29.79 in 10.0 mi ESE 9.2 mph - N/A   Clear
11:14 PM 73.4 °F - 62.6 °F 69% 29.80 in 10.0 mi ESE 11.5 mph - N/A   Clear
11:34 PM 73.4 °F - 62.6 °F 69% 29.79 in 10.0 mi ESE 11.5 mph 18.4 mph N/A   Clear
11:54 PM 73.4 °F - 62.6 °F 69% 29.79 in 10.0 mi ESE 13.8 mph 17.3 mph N/A   Clear